User: anonymous   Login
Location: Unspecified
(0.0000°N, 0.0000°E)
Time: 16:14:16
(UTC+00:00)
Language:

MERIDIAN 4 - Orbit

View from above orbital plane
View from above orbital plane
View from above satellite
View from above satellite

Ground track
Ground track

The orbit data is extracted from the following two-line orbital elements,

1 37398U 11018A   18261.09480150 -.00000065  00000-0  10000-3 0  9992
2 37398  64.4379 115.9309 6976659 259.3659 347.2952  2.00599458 54025
Epoch (UTC): 18 September 2018 02:16:30
Eccentricity: 0.6976659
inclination: 64.4379°
perigee height: 1651 km
apogee height: 38707 km
right ascension of ascending node: 115.9309°
argument of perigee: 259.3659°
revolutions per day: 2.00599458
mean anomaly at epoch: 347.2952°
orbit number at epoch: 5402

The dashed part of the orbit path shows where the satellite is in the earth's shadow,  

DLR